Location: Cz?stochówka
(50.8142°N, 19.0915°E)
Time: 09:36:04
(UTC+00:00)

Gblst 52 Del rocket - Pass Details

Date: 13 January 2026
Orbit: 805 x 1364 km, 51.5° (Epoch: 11 February)

Event Time Altitude Azimuth Distance (km) Brightness Sun altitude
Exits shadow 03:53:18 74° 299° (WNW) 839 3.9 -25.7°
Maximum altitude 03:53:46 83° 4° (N) 816 4.0 -25.6°
Drops below altitude 10° 03:59:18 10° 93° (E) 2,407 7.6 -24.7°
Sets 04:01:48 0° 94° (E) 3,371 8.8 -24.3°
